MTN005 KSFO-KMTJ

Flight info

Callsign MTN005
Flight time 1h 52m
Altitude 35000
Route TRUKN2 SYRAH Q128 TABLL ERRDA MTJ
Aircraft E75L/M-SDE3GILORVW/S

Departure

Time 2026-04-16 13:51
Airport San Francisco International Airport (KSFO)

Arrival

Time 2026-04-16 15:43
Airport Montrose Regional Airport (KMTJ)
Time Latitude Longitude Altitude Speed Heading
2026-04-16 13:10 37.62079 -122.38636 20 ft 0 kts 268°
2026-04-16 13:35 37.62080 -122.38620 23 ft 4 kts 270°
2026-04-16 13:35 37.62077 -122.38586 22 ft 4 kts 287°
2026-04-16 13:35 37.62064 -122.38566 24 ft 4 kts
2026-04-16 13:36 37.62055 -122.38569 21 ft 0 kts 17°
2026-04-16 13:45 37.62058 -122.38567 22 ft 3 kts 17°
2026-04-16 13:45 37.62084 -122.38523 22 ft 9 kts 84°
2026-04-16 13:46 37.62064 -122.38438 20 ft 11 kts 116°
2026-04-16 13:46 37.62024 -122.38341 21 ft 14 kts 117°
2026-04-16 13:46 37.61975 -122.38227 21 ft 16 kts 118°
2026-04-16 13:46 37.61921 -122.38098 21 ft 18 kts 117°
2026-04-16 13:47 37.61860 -122.37951 20 ft 20 kts 117°
2026-04-16 13:47 37.61799 -122.37789 20 ft 21 kts 110°
2026-04-16 13:47 37.61744 -122.37611 20 ft 23 kts 112°
2026-04-16 13:47 37.61679 -122.37421 20 ft 24 kts 117°
2026-04-16 13:48 37.61599 -122.37227 20 ft 26 kts 117°
2026-04-16 13:48 37.61514 -122.37022 20 ft 27 kts 117°
2026-04-16 13:48 37.61399 -122.36829 20 ft 28 kts 130°
2026-04-16 13:48 37.61295 -122.36615 20 ft 29 kts 117°
2026-04-16 13:49 37.61199 -122.36384 21 ft 30 kts 117°
2026-04-16 13:49 37.61114 -122.36170 20 ft 23 kts 99°
2026-04-16 13:49 37.61152 -122.36062 22 ft 9 kts 30°
2026-04-16 13:49 37.61219 -122.36027 20 ft 11 kts
2026-04-16 13:50 37.61260 -122.36047 20 ft 1 kts 301°
2026-04-16 13:50 37.61266 -122.36060 20 ft 3 kts 301°
2026-04-16 13:50 37.61324 -122.36196 21 ft 51 kts 297°
2026-04-16 13:50 37.61617 -122.36891 21 ft 128 kts 299°
2026-04-16 13:51 37.62158 -122.38105 222 ft 174 kts 299°
2026-04-16 13:51 37.62642 -122.39238 1861 ft 122 kts 303°
2026-04-16 13:51 37.63201 -122.40128 2194 ft 153 kts 322°
2026-04-16 13:51 37.64231 -122.40834 2394 ft 184 kts 347°
2026-04-16 13:52 37.65566 -122.40921 2849 ft 200 kts 11°
2026-04-16 13:52 37.66862 -122.40303 3633 ft 199 kts 30°
2026-04-16 13:52 37.67949 -122.39197 4314 ft 206 kts 45°
2026-04-16 13:52 37.68747 -122.37637 5019 ft 219 kts 61°
2026-04-16 13:53 37.69376 -122.35802 5598 ft 244 kts 65°
2026-04-16 13:53 37.69911 -122.33605 5941 ft 278 kts 73°
2026-04-16 13:53 37.70290 -122.31177 6865 ft 284 kts 77°
2026-04-16 13:53 37.70642 -122.28715 7861 ft 286 kts 75°
2026-04-16 13:54 37.71046 -122.26241 8773 ft 290 kts 74°
2026-04-16 13:54 37.71459 -122.23714 9635 ft 298 kts 75°
2026-04-16 13:54 37.71926 -122.21180 10284 ft 308 kts 65°
2026-04-16 13:54 37.72906 -122.18663 10563 ft 330 kts 56°
2026-04-16 13:55 37.74163 -122.16162 11321 ft 334 kts 51°
2026-04-16 13:55 37.75508 -122.13745 12202 ft 339 kts 50°
2026-04-16 13:55 37.76856 -122.11262 13087 ft 346 kts 51°
2026-04-16 13:55 37.78187 -122.08733 13941 ft 354 kts 52°
2026-04-16 13:56 37.79553 -122.06110 14782 ft 359 kts 52°
2026-04-16 13:56 37.80937 -122.03454 15684 ft 364 kts 51°
2026-04-16 13:56 37.82320 -122.00749 16514 ft 372 kts 55°
2026-04-16 13:56 37.83296 -121.97609 17160 ft 388 kts 71°
2026-04-16 13:57 37.83905 -121.94215 17683 ft 404 kts 75°
2026-04-16 13:57 37.84480 -121.90701 18346 ft 412 kts 74°
2026-04-16 13:57 37.85103 -121.87147 19032 ft 416 kts 73°
2026-04-16 13:58 37.86432 -121.79947 20443 ft 425 kts 73°
2026-04-16 13:58 37.87113 -121.76287 21100 ft 429 kts 73°
2026-04-16 13:58 37.87797 -121.72590 21687 ft 434 kts 73°
2026-04-16 13:58 37.88505 -121.68853 22256 ft 438 kts 72°
2026-04-16 13:59 37.89225 -121.65082 22820 ft 443 kts 73°
2026-04-16 13:59 37.89935 -121.61272 23367 ft 447 kts 73°
2026-04-16 13:59 37.90645 -121.57411 23880 ft 452 kts 73°
2026-04-16 13:59 37.91355 -121.53523 24381 ft 455 kts 73°
2026-04-16 14:00 37.92067 -121.49606 24896 ft 458 kts 73°
2026-04-16 14:00 37.92782 -121.45662 25398 ft 461 kts 73°
2026-04-16 14:00 37.93500 -121.41687 25879 ft 465 kts 73°
2026-04-16 14:00 37.94221 -121.37682 26350 ft 468 kts 73°
2026-04-16 14:01 37.94946 -121.33641 26787 ft 472 kts 73°
2026-04-16 14:01 37.95673 -121.29578 27294 ft 473 kts 73°
2026-04-16 14:01 37.96395 -121.25525 27911 ft 471 kts 73°
2026-04-16 14:01 37.97115 -121.21476 28514 ft 470 kts 73°
2026-04-16 14:02 37.97830 -121.17442 29097 ft 469 kts 73°
2026-04-16 14:02 37.98545 -121.13405 29653 ft 469 kts 73°
2026-04-16 14:02 37.99254 -121.09377 30211 ft 468 kts 74°
2026-04-16 14:02 37.99905 -121.05339 30669 ft 468 kts 76°
2026-04-16 14:03 38.00517 -121.01284 31138 ft 467 kts 76°
2026-04-16 14:03 38.01129 -120.97236 31579 ft 467 kts 76°
2026-04-16 14:03 38.01746 -120.93199 32025 ft 466 kts 76°
2026-04-16 14:03 38.02355 -120.89223 32440 ft 466 kts 76°
2026-04-16 14:04 38.02983 -120.85133 32856 ft 465 kts 76°
2026-04-16 14:04 38.03590 -120.81170 33261 ft 465 kts 77°
2026-04-16 14:04 38.04207 -120.77145 33665 ft 464 kts 77°
2026-04-16 14:04 38.04820 -120.73126 34029 ft 464 kts 77°
2026-04-16 14:05 38.05432 -120.69108 34359 ft 463 kts 77°
2026-04-16 14:05 38.06042 -120.65097 34675 ft 463 kts 77°
2026-04-16 14:05 38.06650 -120.61081 34962 ft 463 kts 77°
2026-04-16 14:05 38.07255 -120.57075 35221 ft 465 kts 77°
2026-04-16 14:06 38.08495 -120.48862 35187 ft 482 kts 77°
2026-04-16 14:06 38.09129 -120.44637 35060 ft 493 kts 78°
2026-04-16 14:06 38.09774 -120.40330 35057 ft 500 kts 78°
2026-04-16 14:07 38.11071 -120.31623 35058 ft 504 kts 78°
2026-04-16 14:07 38.12368 -120.22868 35025 ft 504 kts 78°
2026-04-16 14:08 38.13659 -120.14115 35022 ft 504 kts 78°
2026-04-16 14:08 38.14724 -120.06836 35021 ft 505 kts 78°
2026-04-16 14:09 38.15998 -119.98068 35017 ft 505 kts 78°
2026-04-16 14:09 38.17273 -119.89287 35012 ft 505 kts 78°
2026-04-16 14:10 38.18542 -119.80504 35002 ft 505 kts 79°
2026-04-16 14:10 38.19803 -119.71722 34995 ft 505 kts 79°
2026-04-16 14:11 38.21059 -119.62934 34984 ft 505 kts 79°
2026-04-16 14:11 38.22310 -119.54127 34971 ft 506 kts 79°
2026-04-16 14:12 38.23555 -119.45324 34960 ft 506 kts 79°
2026-04-16 14:12 38.24793 -119.36511 34942 ft 507 kts 79°
2026-04-16 14:13 38.26028 -119.27678 34921 ft 508 kts 80°
2026-04-16 14:13 38.27262 -119.18814 34917 ft 509 kts 80°
2026-04-16 14:14 38.28496 -119.09926 34910 ft 510 kts 80°
2026-04-16 14:14 38.29767 -119.01094 34902 ft 511 kts 80°
2026-04-16 14:15 38.30959 -118.92163 34893 ft 512 kts 81°
2026-04-16 14:15 38.32156 -118.83223 34937 ft 513 kts 81°
2026-04-16 14:16 38.33368 -118.74250 34955 ft 514 kts 81°
2026-04-16 14:16 38.34586 -118.65264 34962 ft 515 kts 81°
2026-04-16 14:17 38.35788 -118.56271 34966 ft 516 kts 81°
2026-04-16 14:17 38.36989 -118.47253 34954 ft 517 kts 81°
2026-04-16 14:18 38.38182 -118.38226 34935 ft 517 kts 81°
2026-04-16 14:18 38.39375 -118.29184 34905 ft 518 kts 81°
2026-04-16 14:19 38.40563 -118.20123 34882 ft 518 kts 81°
2026-04-16 14:19 38.41742 -118.11045 34879 ft 519 kts 81°
2026-04-16 14:20 38.42927 -118.01966 34893 ft 519 kts 81°
2026-04-16 14:20 38.44097 -117.92881 34893 ft 519 kts 81°
2026-04-16 14:21 38.45253 -117.83792 34896 ft 519 kts 81°
2026-04-16 14:21 38.46405 -117.74695 34900 ft 519 kts 81°
2026-04-16 14:22 38.47549 -117.65597 34908 ft 519 kts 81°
2026-04-16 14:22 38.48681 -117.56499 34905 ft 519 kts 82°
2026-04-16 14:23 38.49814 -117.47389 34902 ft 520 kts 82°
2026-04-16 14:23 38.50923 -117.38338 34901 ft 520 kts 82°
2026-04-16 14:24 38.52022 -117.29219 34902 ft 518 kts 84°
2026-04-16 14:24 38.52500 -117.20041 34899 ft 518 kts 89°
2026-04-16 14:25 38.52890 -117.10854 34888 ft 518 kts 88°
2026-04-16 14:25 38.53342 -117.01676 34894 ft 517 kts 88°
2026-04-16 14:26 38.53803 -116.92513 34891 ft 517 kts 88°
2026-04-16 14:26 38.54258 -116.83349 34891 ft 516 kts 88°
2026-04-16 14:27 38.54705 -116.74196 34887 ft 516 kts 88°
2026-04-16 14:27 38.55145 -116.65051 34871 ft 516 kts 89°
2026-04-16 14:28 38.55576 -116.55897 34876 ft 516 kts 89°
2026-04-16 14:28 38.56001 -116.46753 34860 ft 516 kts 89°
2026-04-16 14:29 38.56421 -116.37602 34856 ft 516 kts 89°
2026-04-16 14:29 38.56830 -116.28447 34842 ft 516 kts 89°
2026-04-16 14:30 38.57234 -116.19286 34840 ft 517 kts 89°
2026-04-16 14:30 38.57632 -116.10117 34831 ft 517 kts 89°
2026-04-16 14:31 38.58022 -116.00942 34827 ft 517 kts 89°
2026-04-16 14:31 38.58403 -115.91823 34830 ft 518 kts 89°
2026-04-16 14:32 38.58780 -115.82630 34825 ft 518 kts 89°
2026-04-16 14:32 38.59150 -115.73438 34822 ft 518 kts 89°
2026-04-16 14:33 38.59513 -115.64230 34816 ft 518 kts 89°
2026-04-16 14:33 38.59868 -115.55033 34815 ft 518 kts 89°
2026-04-16 14:34 38.60218 -115.45832 34815 ft 518 kts 90°
2026-04-16 14:34 38.60562 -115.36634 34816 ft 518 kts 90°
2026-04-16 14:35 38.60896 -115.27429 34795 ft 519 kts 90°
2026-04-16 14:35 38.61225 -115.18214 34791 ft 519 kts 90°
2026-04-16 14:36 38.61548 -115.09016 34791 ft 518 kts 90°
2026-04-16 14:36 38.61863 -114.99802 34791 ft 518 kts 90°
2026-04-16 14:37 38.62172 -114.90607 34782 ft 517 kts 90°
2026-04-16 14:37 38.62475 -114.81432 34790 ft 516 kts 90°
2026-04-16 14:38 38.62764 -114.72258 34786 ft 516 kts 90°
2026-04-16 14:38 38.63057 -114.63089 34789 ft 516 kts 90°
2026-04-16 14:39 38.63340 -114.53929 34793 ft 515 kts 90°
2026-04-16 14:39 38.63620 -114.44831 34791 ft 515 kts 90°
2026-04-16 14:40 38.63867 -114.35689 34792 ft 515 kts 90°
2026-04-16 14:40 38.64126 -114.26469 34797 ft 515 kts 91°
2026-04-16 14:41 38.64376 -114.17390 34794 ft 514 kts 90°
2026-04-16 14:41 38.64624 -114.08261 34795 ft 513 kts 91°
2026-04-16 14:42 38.64866 -113.99129 34796 ft 513 kts 91°
2026-04-16 14:42 38.65102 -113.90018 34795 ft 513 kts 91°
2026-04-16 14:43 38.65318 -113.80886 34798 ft 514 kts 91°
2026-04-16 14:43 38.65532 -113.71759 34799 ft 513 kts 91°
2026-04-16 14:44 38.65734 -113.62622 34798 ft 514 kts 91°
2026-04-16 14:44 38.65930 -113.53484 34796 ft 514 kts 91°
2026-04-16 14:45 38.66125 -113.44342 34805 ft 514 kts 91°
2026-04-16 14:45 38.66309 -113.35189 34808 ft 515 kts 91°
2026-04-16 14:46 38.66489 -113.26034 34840 ft 515 kts 91°
2026-04-16 14:46 38.66672 -113.16867 34857 ft 514 kts 92°
2026-04-16 14:47 38.66331 -113.07757 34868 ft 513 kts 97°
2026-04-16 14:47 38.65954 -112.98699 34878 ft 513 kts 96°
2026-04-16 14:48 38.65654 -112.89518 34874 ft 514 kts 96°
2026-04-16 14:48 38.65365 -112.80439 34859 ft 514 kts 96°
2026-04-16 14:49 38.65063 -112.71237 34852 ft 514 kts 96°
2026-04-16 14:49 38.64758 -112.62157 34840 ft 514 kts 96°
2026-04-16 14:50 38.64443 -112.53019 34864 ft 515 kts 96°
2026-04-16 14:50 38.64121 -112.43872 34858 ft 515 kts 96°
2026-04-16 14:51 38.63791 -112.34732 34872 ft 515 kts 96°
2026-04-16 14:51 38.63458 -112.25591 34863 ft 514 kts 96°
2026-04-16 14:53 38.62047 -111.89082 34864 ft 513 kts 96°
2026-04-16 14:54 38.61676 -111.79972 34883 ft 514 kts 97°
2026-04-16 14:54 38.61298 -111.70850 34878 ft 513 kts 97°
2026-04-16 14:55 38.60913 -111.61749 34877 ft 513 kts 97°
2026-04-16 14:55 38.60523 -111.52649 34870 ft 513 kts 97°
2026-04-16 14:56 38.60126 -111.43556 34854 ft 512 kts 97°
2026-04-16 14:56 38.59724 -111.34458 34852 ft 513 kts 97°
2026-04-16 14:57 38.59384 -111.26900 34849 ft 513 kts 97°
2026-04-16 14:57 38.58967 -111.17784 34843 ft 514 kts 97°
2026-04-16 14:58 38.58309 -111.04100 34864 ft 514 kts 97°
2026-04-16 14:59 38.57867 -110.94971 34884 ft 514 kts 97°
2026-04-16 14:59 38.57430 -110.85847 34908 ft 515 kts 97°
2026-04-16 15:00 38.56980 -110.76712 34937 ft 515 kts 97°
2026-04-16 15:00 38.56529 -110.67556 34935 ft 516 kts 97°
2026-04-16 15:01 38.56062 -110.58422 34931 ft 515 kts 97°
2026-04-16 15:01 38.55589 -110.49282 34899 ft 516 kts 97°
2026-04-16 15:02 38.55122 -110.40142 34863 ft 515 kts 97°
2026-04-16 15:02 38.54648 -110.31007 34830 ft 515 kts 97°
2026-04-16 15:03 38.54151 -110.21879 34815 ft 515 kts 97°
2026-04-16 15:03 38.53649 -110.12751 34818 ft 515 kts 97°
2026-04-16 15:04 38.53991 -110.03599 34861 ft 521 kts 81°
2026-04-16 15:04 38.55432 -109.94526 34848 ft 521 kts 79°
2026-04-16 15:05 38.56859 -109.85459 34894 ft 521 kts 80°
2026-04-16 15:05 38.58224 -109.76369 34964 ft 520 kts 80°
2026-04-16 15:06 38.59575 -109.67290 35024 ft 520 kts 80°
2026-04-16 15:06 38.60917 -109.58273 35030 ft 505 kts 80°
2026-04-16 15:06 38.61561 -109.53935 35038 ft 488 kts 81°
2026-04-16 15:07 38.62179 -109.49750 35074 ft 484 kts 81°
2026-04-16 15:07 38.62794 -109.45567 34999 ft 471 kts 81°
2026-04-16 15:07 38.63388 -109.41524 34800 ft 458 kts 81°
2026-04-16 15:07 38.63967 -109.37564 34463 ft 450 kts 81°
2026-04-16 15:08 38.64539 -109.33633 33998 ft 447 kts 81°
2026-04-16 15:08 38.65108 -109.29719 33333 ft 447 kts 81°
2026-04-16 15:08 38.65674 -109.25807 32563 ft 451 kts 81°
2026-04-16 15:08 38.66253 -109.21834 31645 ft 457 kts 81°
2026-04-16 15:09 38.66843 -109.17789 30573 ft 466 kts 81°
2026-04-16 15:09 38.67444 -109.13668 29285 ft 478 kts 81°
2026-04-16 15:09 38.68053 -109.09468 28239 ft 480 kts 81°
2026-04-16 15:09 38.68653 -109.05319 27510 ft 474 kts 81°
2026-04-16 15:10 38.69246 -109.01189 26815 ft 468 kts 81°
2026-04-16 15:10 38.69830 -108.97121 26142 ft 462 kts 81°
2026-04-16 15:10 38.70402 -108.93108 25466 ft 456 kts 81°
2026-04-16 15:10 38.70911 -108.89122 24828 ft 450 kts 84°
2026-04-16 15:11 38.71203 -108.85165 24206 ft 444 kts 90°
2026-04-16 15:11 38.71156 -108.81252 23554 ft 437 kts 98°
2026-04-16 15:11 38.70683 -108.77441 22750 ft 431 kts 108°
2026-04-16 15:11 38.69710 -108.73863 21949 ft 421 kts 120°
2026-04-16 15:12 38.68219 -108.70705 21205 ft 408 kts 133°
2026-04-16 15:12 38.66260 -108.68173 20485 ft 394 kts 148°
2026-04-16 15:12 38.63948 -108.66439 19751 ft 379 kts 164°
2026-04-16 15:12 38.61446 -108.65645 18999 ft 366 kts 180°
2026-04-16 15:13 38.58961 -108.65862 18263 ft 353 kts 198°
2026-04-16 15:13 38.56741 -108.67041 17526 ft 341 kts 216°
2026-04-16 15:13 38.54877 -108.69247 16808 ft 331 kts 235°
2026-04-16 15:13 38.53895 -108.71861 16082 ft 328 kts 254°
2026-04-16 15:14 38.53744 -108.74774 15300 ft 333 kts 274°
2026-04-16 15:14 38.54454 -108.77593 14602 ft 339 kts 294°
2026-04-16 15:14 38.55894 -108.79902 14036 ft 344 kts 313°
2026-04-16 15:14 38.57874 -108.81486 13484 ft 348 kts 332°
2026-04-16 15:15 38.60249 -108.82192 12796 ft 356 kts 352°
2026-04-16 15:15 38.62724 -108.81894 12058 ft 363 kts 12°
2026-04-16 15:15 38.65056 -108.80589 11375 ft 367 kts 31°
2026-04-16 15:15 38.66941 -108.78430 10837 ft 363 kts 52°
2026-04-16 15:16 38.68155 -108.75660 10369 ft 355 kts 73°
2026-04-16 15:16 38.68552 -108.72598 9800 ft 347 kts 94°
2026-04-16 15:16 38.68088 -108.69686 9182 ft 318 kts 118°
2026-04-16 15:16 38.67024 -108.67448 9958 ft 285 kts 135°
2026-04-16 15:17 38.65655 -108.65829 10245 ft 264 kts 153°
2026-04-16 15:17 38.63962 -108.64952 9703 ft 258 kts 171°
2026-04-16 15:17 38.62350 -108.64478 9885 ft 222 kts 173°
2026-04-16 15:17 38.60875 -108.64176 10122 ft 212 kts 179°
2026-04-16 15:18 38.59397 -108.64088 10579 ft 213 kts 184°
2026-04-16 15:18 38.57945 -108.64403 10906 ft 218 kts 202°
2026-04-16 15:18 38.56668 -108.65374 10820 ft 211 kts 228°
2026-04-16 15:18 38.55885 -108.66813 11694 ft 192 kts 238°
2026-04-16 15:19 38.55089 -108.68167 11928 ft 194 kts 232°
2026-04-16 15:19 38.54450 -108.69660 12200 ft 193 kts 250°
2026-04-16 15:19 38.54132 -108.71343 12376 ft 198 kts 257°
2026-04-16 15:19 38.53840 -108.73090 12539 ft 200 kts 253°
2026-04-16 15:20 38.53603 -108.74776 13012 ft 191 kts 259°
2026-04-16 15:20 38.53467 -108.76546 13335 ft 208 kts 270°
2026-04-16 15:20 38.53491 -108.78237 14268 ft 183 kts 242°
2026-04-16 15:20 38.52727 -108.79587 14570 ft 200 kts 232°
2026-04-16 15:21 38.51777 -108.80979 14783 ft 217 kts 230°
2026-04-16 15:21 38.50749 -108.82387 15356 ft 214 kts 229°
2026-04-16 15:21 38.49874 -108.83939 15711 ft 221 kts 238°
2026-04-16 15:21 38.49195 -108.85699 15862 ft 221 kts 252°
2026-04-16 15:22 38.48748 -108.87563 15302 ft 217 kts 253°
2026-04-16 15:22 38.48449 -108.89440 14749 ft 214 kts 263°
2026-04-16 15:22 38.48606 -108.91221 14639 ft 201 kts 284°
2026-04-16 15:22 38.48868 -108.92870 14453 ft 182 kts 267°
2026-04-16 15:23 38.48966 -108.94446 14383 ft 179 kts 281°
2026-04-16 15:23 38.49438 -108.95944 14073 ft 186 kts 277°
2026-04-16 15:23 38.49625 -108.97580 13956 ft 185 kts 276°
2026-04-16 15:23 38.49952 -108.99105 13998 ft 181 kts 293°
2026-04-16 15:24 38.51186 -108.99978 12934 ft 250 kts 351°
2026-04-16 15:24 38.52947 -108.99961 13425 ft 248 kts 356°
2026-04-16 15:24 38.54632 -108.99823 13963 ft 242 kts 357°
2026-04-16 15:24 38.56339 -108.99645 13422 ft 255 kts 360°
2026-04-16 15:25 38.58141 -108.99300 12654 ft 271 kts
2026-04-16 15:25 38.60015 -108.98649 11936 ft 287 kts 16°
2026-04-16 15:25 38.61808 -108.97633 11923 ft 271 kts 24°
2026-04-16 15:25 38.63415 -108.96551 11989 ft 257 kts 25°
2026-04-16 15:26 38.64940 -108.95420 12049 ft 242 kts 30°
2026-04-16 15:26 38.66190 -108.94132 12326 ft 227 kts 52°
2026-04-16 15:26 38.67046 -108.92408 12235 ft 232 kts 55°
2026-04-16 15:26 38.67969 -108.90766 12433 ft 222 kts 56°
2026-04-16 15:27 38.68738 -108.89054 12387 ft 223 kts 62°
2026-04-16 15:27 38.69623 -108.87424 12453 ft 218 kts 54°
2026-04-16 15:27 38.70290 -108.85660 12328 ft 225 kts 72°
2026-04-16 15:27 38.70742 -108.83741 12188 ft 235 kts 84°
2026-04-16 15:28 38.70949 -108.81581 12512 ft 250 kts 83°
2026-04-16 15:28 38.71409 -108.79326 12717 ft 269 kts 79°
2026-04-16 15:28 38.71832 -108.76906 12728 ft 292 kts 80°
2026-04-16 15:28 38.72222 -108.74413 13259 ft 265 kts 86°
2026-04-16 15:29 38.72254 -108.72281 14290 ft 229 kts 84°
2026-04-16 15:29 38.72563 -108.70233 14423 ft 239 kts 81°
2026-04-16 15:29 38.72787 -108.68848 14551 ft 242 kts 80°
2026-04-16 15:29 38.73151 -108.66772 14921 ft 235 kts 81°
2026-04-16 15:30 38.73411 -108.64027 15492 ft 234 kts 93°
2026-04-16 15:30 38.73380 -108.61952 16015 ft 234 kts 93°
2026-04-16 15:30 38.73400 -108.60522 16167 ft 245 kts 92°
2026-04-16 15:30 38.73573 -108.58240 16189 ft 268 kts 83°
2026-04-16 15:31 38.74018 -108.55869 16349 ft 277 kts 73°
2026-04-16 15:31 38.74599 -108.53568 16796 ft 269 kts 72°
2026-04-16 15:31 38.75127 -108.51313 17186 ft 259 kts 71°
2026-04-16 15:31 38.75777 -108.49110 16977 ft 268 kts 71°
2026-04-16 15:32 38.76490 -108.46900 16734 ft 267 kts 68°
2026-04-16 15:32 38.77102 -108.44731 16713 ft 256 kts 71°
2026-04-16 15:32 38.77592 -108.42572 16637 ft 248 kts 85°
2026-04-16 15:32 38.77752 -108.40315 16150 ft 261 kts 87°
2026-04-16 15:33 38.77975 -108.37947 15672 ft 275 kts 84°
2026-04-16 15:33 38.78285 -108.35514 15276 ft 285 kts 82°
2026-04-16 15:33 38.78635 -108.33028 14894 ft 282 kts 82°
2026-04-16 15:33 38.78993 -108.30534 14497 ft 281 kts 82°
2026-04-16 15:34 38.79332 -108.28112 14126 ft 279 kts 82°
2026-04-16 15:34 38.79665 -108.25682 13655 ft 275 kts 82°
2026-04-16 15:34 38.79995 -108.23272 13119 ft 272 kts 82°
2026-04-16 15:34 38.80322 -108.20888 12614 ft 270 kts 83°
2026-04-16 15:35 38.80636 -108.18533 12139 ft 267 kts 83°
2026-04-16 15:35 38.80955 -108.16195 11695 ft 264 kts 82°
2026-04-16 15:35 38.81282 -108.13904 11238 ft 262 kts 82°
2026-04-16 15:35 38.81614 -108.11613 10808 ft 259 kts 83°
2026-04-16 15:36 38.81856 -108.09361 10384 ft 252 kts 94°
2026-04-16 15:36 38.81496 -108.07205 9926 ft 245 kts 115°
2026-04-16 15:36 38.80840 -108.05221 9480 ft 240 kts 120°
2026-04-16 15:36 38.80121 -108.03310 9114 ft 233 kts 120°
2026-04-16 15:37 38.79431 -108.01459 8806 ft 227 kts 119°
2026-04-16 15:37 38.78787 -107.99649 8575 ft 220 kts 117°
2026-04-16 15:37 38.78165 -107.97841 8336 ft 224 kts 117°
2026-04-16 15:37 38.77533 -107.95996 8073 ft 228 kts 116°
2026-04-16 15:38 38.76891 -107.94133 7812 ft 229 kts 116°
2026-04-16 15:38 38.76254 -107.92280 7554 ft 225 kts 116°
2026-04-16 15:38 38.75441 -107.90616 7313 ft 217 kts 135°
2026-04-16 15:38 38.74233 -107.89614 7093 ft 202 kts 162°
2026-04-16 15:39 38.72868 -107.89370 6845 ft 197 kts 179°
2026-04-16 15:39 38.71501 -107.89364 6590 ft 196 kts 181°
2026-04-16 15:39 38.70145 -107.89399 6345 ft 196 kts 182°
2026-04-16 15:39 38.68788 -107.89433 6112 ft 195 kts 184°
2026-04-16 15:40 38.67496 -107.89556 6188 ft 177 kts 186°
2026-04-16 15:40 38.66285 -107.89642 6201 ft 172 kts 183°
2026-04-16 15:40 38.65103 -107.89670 6513 ft 173 kts 182°
2026-04-16 15:40 38.63857 -107.89671 6958 ft 178 kts 180°
2026-04-16 15:41 38.62650 -107.89621 7272 ft 172 kts 179°
2026-04-16 15:41 38.61422 -107.89511 7250 ft 186 kts 176°
2026-04-16 15:41 38.60115 -107.89389 7142 ft 188 kts 179°
2026-04-16 15:41 38.58851 -107.89356 6988 ft 174 kts 182°
2026-04-16 15:42 38.57653 -107.89321 6872 ft 167 kts 180°
2026-04-16 15:42 38.56512 -107.89265 6672 ft 168 kts 182°
2026-04-16 15:42 38.55311 -107.89273 6484 ft 171 kts 182°
2026-04-16 15:42 38.54164 -107.89284 6228 ft 159 kts 182°
2026-04-16 15:43 38.53073 -107.89281 5882 ft 155 kts 180°
2026-04-16 15:43 38.52042 -107.89258 5738 ft 139 kts 176°
2026-04-16 15:43 38.51170 -107.89203 5724 ft 106 kts 174°
2026-04-16 15:43 38.50598 -107.89245 5731 ft 49 kts 184°
2026-04-16 15:44 38.50415 -107.89262 5737 ft 21 kts 182°
2026-04-16 15:44 38.50278 -107.89310 5737 ft 21 kts 227°
2026-04-16 15:44 38.50274 -107.89394 5735 ft 2 kts 354°
2026-04-16 15:44 38.50309 -107.89398 5735 ft 7 kts 354°
2026-04-16 15:45 38.50365 -107.89405 5738 ft 9 kts 355°
2026-04-16 15:45 38.50438 -107.89419 5734 ft 11 kts 332°
2026-04-16 15:45 38.50445 -107.89496 5735 ft 10 kts 243°
2026-04-16 15:45 38.50399 -107.89591 5734 ft 15 kts 236°
2026-04-16 15:46 38.50327 -107.89700 5730 ft 18 kts 229°
2026-04-16 15:46 38.50238 -107.89824 5726 ft 19 kts 228°
2026-04-16 15:46 38.50181 -107.89885 5727 ft 9 kts 186°
2026-04-16 15:46 38.50123 -107.89864 5730 ft 7 kts 168°
2026-04-16 15:47 38.50092 -107.89884 5730 ft 4 kts 225°
2026-04-16 15:47 38.50082 -107.89896 5732 ft 0 kts 224°